Weather History for KUES - January, 2014

Change the Weather History Date:

Thursday, January 2, 2014

  Actual Average Record
Temperature  
Mean Temperature 3 °F -  
Max Temperature 10 °F 26 °F 55 °F (2000)
Min Temperature -4 °F 12 °F -14 °F (1979)
Degree Days  
Heating Degree Days 62    
Moisture  
Dew Point 0 °F    
Average Humidity 77    
Maximum Humidity 85    
Minimum Humidity 62    
Precipitation  
Precipitation 0.00 in - - ()
Sea Level Pressure  
Sea Level Pressure 30.28 in    
Wind  
Wind Speed 9 mph (NW)    
Max Wind Speed 13 mph    
Max Gust Speed 17 mph    
Visibility 7 miles    
Events Snow    
Averages and records for this station are not official NWS values.
T = Trace of Precipitation, MM = Missing Value Source: NWS Daily Summary

Daily Weather History Graph

Daily Weather History Graph

Search for Another Location

Airport or City:

Trip Planner

Search our weather history database for the weather conditions in past years. The results will help you decide how hot, cold, wet, or windy it might be!

Date:

Astronomy

Jan. 02, 2014 Rise Set
Actual Time 7:24 AM CST 4:29 PM CST
Civil Twilight 6:52 AM CST 5:02 PM CST
Nautical Twilight 6:16 AM CST 5:37 PM CST
Astronomical Twilight 5:42 AM CST 6:12 PM CST
Moon 8:02 AM CST (1/2) 6:30 PM CST (1/2)
Length of Visible Light 10h 09m
Length of Day
9h 05m
Waxing Crescent, 3% of the Moon is Illuminated
Jan 2
Waxing Crescent
Jan 7
First Quarter
Jan 15
Full
Jan 23
Last Quarter
Jan 30
New

Hourly Weather History & Observations

Time (CST) Temp. Windchill Dew Point Humidity Pressure Visibility Wind Dir Wind Speed Gust Speed Precip Events Conditions
12:15 AM 10.4 °F -0.4 °F 5.0 °F 79% 30.23 in 10.0 mi NNW 6.9 mph - N/A Snow Light Snow
12:35 AM 10.4 °F 0.8 °F 5.0 °F 79% 30.22 in 10.0 mi North 5.8 mph - N/A   Overcast
12:55 AM 10.4 °F -2.4 °F 5.0 °F 79% 30.21 in 10.0 mi North 9.2 mph - N/A   Overcast
1:15 AM 10.4 °F -1.5 °F 5.0 °F 79% 30.21 in 5.0 mi North 8.1 mph - N/A Snow Light Snow
1:35 AM 10.4 °F -3.3 °F 5.0 °F 79% 30.21 in 5.0 mi North 10.4 mph - N/A Snow Light Snow
1:55 AM 10.4 °F -2.4 °F 5.0 °F 79% 30.21 in 4.0 mi North 9.2 mph - N/A Snow Light Snow
2:15 AM 10.4 °F -2.4 °F 6.8 °F 85% 30.21 in 4.0 mi North 9.2 mph - N/A Snow Light Snow
2:35 AM 10.4 °F -2.4 °F 6.8 °F 85% 30.21 in 4.0 mi North 9.2 mph - N/A Snow Light Snow
2:55 AM 10.4 °F -2.4 °F 6.8 °F 85% 30.21 in 3.0 mi North 9.2 mph 17.3 mph N/A Snow Light Snow
3:15 AM 10.4 °F -2.4 °F 6.8 °F 85% 30.20 in 1.8 mi North 9.2 mph - N/A Snow Light Snow
3:35 AM 10.4 °F -3.3 °F 6.8 °F 85% 30.20 in 1.8 mi North 10.4 mph - N/A Snow Light Snow
3:55 AM 10.4 °F -1.5 °F 6.8 °F 85% 30.19 in 1.2 mi North 8.1 mph - N/A Snow Light Snow
4:15 AM 10.4 °F -0.4 °F 5.0 °F 79% 30.20 in 2.0 mi North 6.9 mph - N/A Snow Light Snow
4:35 AM 8.6 °F -4.7 °F 5.0 °F 85% 30.20 in 2.0 mi North 9.2 mph - N/A Snow Light Snow
5:45 AM 8.6 °F -4.7 °F 5.0 °F 85% 30.21 in 1.5 mi NW 9.2 mph - N/A Snow Light Snow
6:45 AM 8.6 °F -4.7 °F 3.2 °F 79% 30.22 in 2.0 mi NW 9.2 mph - N/A Snow Light Snow
7:45 AM 6.8 °F -6.9 °F 3.2 °F 85% 30.23 in 2.0 mi NNW 9.2 mph - N/A Snow Light Snow
8:45 AM 6.8 °F -6.9 °F 3.2 °F 85% 30.25 in 2.0 mi NNW 9.2 mph - N/A Snow Light Snow
9:45 AM 8.6 °F -5.5 °F 3.2 °F 79% 30.27 in 2.5 mi NNW 10.4 mph - N/A Snow Light Snow
10:45 AM 8.6 °F -6.3 °F 3.2 °F 79% 30.27 in 10.0 mi NNW 11.5 mph - N/A Snow Light Snow
11:45 AM 10.4 °F -1.5 °F 3.2 °F 73% 30.26 in 10.0 mi NW 8.1 mph - N/A   Scattered Clouds
12:45 PM 10.4 °F -4.1 °F 1.4 °F 67% 30.25 in 10.0 mi NW 11.5 mph - N/A   Clear
1:45 PM 10.4 °F -4.1 °F -0.4 °F 62% 30.26 in 10.0 mi NW 11.5 mph - N/A   Clear
2:45 PM 8.6 °F -7.0 °F -0.4 °F 67% 30.28 in 10.0 mi WNW 12.7 mph - N/A   Partly Cloudy
3:45 PM 6.8 °F -9.3 °F -2.2 °F 67% 30.31 in 10.0 mi WNW 12.7 mph - N/A   Scattered Clouds
4:45 PM 5.0 °F -11.6 °F -2.2 °F 72% 30.33 in 10.0 mi WNW 12.7 mph - N/A   Scattered Clouds
5:45 PM 3.2 °F -13.9 °F -4.0 °F 72% 30.35 in 10.0 mi WNW 12.7 mph - N/A   Clear
6:45 PM 1.4 °F -16.1 °F -5.8 °F 72% 30.36 in 10.0 mi WNW 12.7 mph - N/A   Clear
7:45 PM -0.4 °F -18.4 °F -7.6 °F 72% 30.37 in 10.0 mi WNW 12.7 mph - N/A   Clear
8:15 PM 1.4 °F -12.5 °F -7.6 °F 66% 30.37 in 10.0 mi NW 8.1 mph - N/A   Clear
8:35 PM 1.4 °F -11.3 °F -7.6 °F 66% 30.36 in 10.0 mi NW 6.9 mph - N/A   Clear
8:45 PM -0.4 °F -18.4 °F -7.6 °F 72% 30.37 in 10.0 mi WNW 12.7 mph - N/A   Clear
8:55 PM -0.4 °F -12.0 °F -7.6 °F 72% 30.36 in 10.0 mi WNW 5.8 mph - N/A   Clear
9:15 PM -0.4 °F -13.4 °F -7.6 °F 72% 30.36 in 10.0 mi WNW 6.9 mph - N/A   Clear
9:35 PM -0.4 °F -14.7 °F -7.6 °F 72% 30.37 in 10.0 mi WNW 8.1 mph - N/A   Clear
9:55 PM -0.4 °F -12.0 °F -7.6 °F 72% 30.37 in 10.0 mi WNW 5.8 mph - N/A   Clear
10:15 PM -2.2 °F -14.2 °F -7.6 °F 78% 30.38 in 10.0 mi WNW 5.8 mph - N/A   Clear
10:35 PM -2.2 °F -14.2 °F -7.6 °F 78% 30.37 in 10.0 mi West 5.8 mph - N/A   Clear
10:55 PM -4.0 °F -16.3 °F -7.6 °F 85% 30.37 in 10.0 mi WNW 5.8 mph - N/A   Clear
11:15 PM -4.0 °F -16.3 °F -9.4 °F 78% 30.38 in 10.0 mi WNW 5.8 mph - N/A   Clear
11:35 PM -4.0 °F -17.8 °F -9.4 °F 78% 30.38 in 10.0 mi WNW 6.9 mph - N/A   Clear
11:55 PM -4.0 °F -14.6 °F -9.4 °F 78% 30.37 in 10.0 mi WNW 4.6 mph - N/A   Clear